Location: Unspecified
(39.9903°N, 0.0000°E)
Time: 03:48:00
(UTC+00:00)

Vanguard 3 - All Passes

Search period start: 04 April 2026 00:00
Search period end: 14 April 2026 00:00
Orbit: 508 x 3205 km, 33.3° (Epoch: 28 March)

Date Brightness Start Highest point End Pass type
(mag) Time Alt. Az. Time Alt. Az. Time Alt. Az.
4 Apr - 02:17:03 10° SSW 02:21:03 26° SSE 02:26:48 10° E visible
4 Apr - 04:25:39 10° WSW 04:31:33 54° S 04:41:55 10° E visible
4 Apr - 06:35:33 10° W 06:43:34 50° SSW 06:57:20 10° ESE daylight
4 Apr - 08:47:05 10° W 08:56:41 31° SSW 09:10:27 10° SSE daylight
4 Apr - 11:06:48 10° SW 11:10:11 11° SW 11:13:47 10° SSW daylight
5 Apr - 00:59:00 10° SSE 01:00:17 11° SE 01:01:40 10° SE visible
5 Apr - 03:05:17 10° SW 03:09:57 41° SSE 03:17:29 10° E visible
5 Apr - 05:14:36 10° WSW 05:21:06 54° S 05:32:34 10° ESE daylight
5 Apr - 07:25:02 10° W 07:33:29 39° SSW 07:47:06 10° SE daylight
5 Apr - 09:38:31 10° WSW 09:46:45 19° SSW 09:57:13 10° S daylight
6 Apr - 01:45:25 10° SSW 01:48:53 23° SSE 01:53:33 10° E visible
6 Apr - 03:53:59 10° WSW 03:59:10 50° S 04:08:02 10° ESE visible
6 Apr - 06:03:44 10° W 06:10:47 46° SSW 06:22:53 10° SE daylight
6 Apr - 08:15:07 10° WSW 08:23:30 27° SSW 08:35:40 10° SSE daylight
7 Apr - 02:33:38 10° SW 02:37:46 37° SSE 02:44:04 10° E visible
7 Apr - 04:42:54 10° WSW 04:48:36 49° S 04:58:28 10° ESE visible
7 Apr - 06:53:12 10° W 07:00:36 35° SSW 07:12:29 10° SE daylight
7 Apr - 09:06:46 10° WSW 09:13:33 17° SSW 09:22:05 10° S daylight
8 Apr - 01:13:44 10° SSW 01:16:46 21° SSE 01:20:34 10° ESE visible
8 Apr - 03:22:19 10° WSW 03:26:56 46° S 03:34:22 10° ESE visible
8 Apr - 05:32:02 10° W 05:38:11 42° S 05:48:35 10° SE daylight
8 Apr - 07:43:21 10° WSW 07:50:31 24° SSW 08:00:51 10° SSE daylight
9 Apr - 02:01:57 10° SW 02:05:40 34° SSE 02:10:54 10° ESE visible
9 Apr - 04:11:15 10° WSW 04:16:16 45° S 04:24:36 10° ESE visible
9 Apr - 06:21:29 10° WSW 06:27:54 31° SSW 06:37:59 10° SE daylight
9 Apr - 08:35:27 10° WSW 08:40:31 14° SSW 08:46:41 10° S daylight
10 Apr - 00:41:57 10° SSW 00:44:41 19° SSE 00:47:52 10° ESE night (unlit)
10 Apr - 02:50:41 10° WSW 02:54:47 42° S 03:01:00 10° ESE visible
10 Apr - 05:00:23 10° WSW 05:05:44 37° S 05:14:29 10° SE visible
10 Apr - 07:11:46 10° WSW 07:17:43 20° SSW 07:26:04 10° SSE daylight
11 Apr - 01:30:13 10° SW 01:33:37 31° SSE 01:38:00 10° ESE visible
11 Apr - 03:39:37 10° WSW 03:44:02 40° S 03:51:00 10° ESE visible
11 Apr - 05:49:53 10° WSW 05:55:21 27° SSW 06:03:38 10° SSE daylight
11 Apr - 08:05:04 10° SW 08:07:39 11° SSW 08:10:32 10° SSW daylight
12 Apr - 00:10:00 10° SSW 00:12:37 18° SSE 00:15:26 10° ESE night (unlit)
12 Apr - 02:18:59 10° WSW 02:22:41 38° S 02:27:53 10° ESE visible
12 Apr - 04:28:47 10° WSW 04:33:25 32° S 04:40:37 10° SE visible
12 Apr - 06:40:25 10° WSW 06:45:06 17° SSW 06:51:17 10° SSE daylight
13 Apr - 00:58:22 10° SW 01:01:35 29° SSE 01:05:22 10° ESE night (unlit)
13 Apr - 03:07:58 10° WSW 03:11:54 35° S 03:17:38 10° ESE visible
13 Apr - 05:18:24 10° WSW 05:22:56 22° SSW 05:29:28 10° SSE daylight
13 Apr - 23:37:48 10° SSW 23:40:34 19° SSE 23:43:16 10° ESE night (unlit)
